When you browse on this site, cookies collect data to enhance your experience and personalize the content and advertising you see.
Visit our Privacy Policy to learn more. By continuing to use the site, you agree to this use of cookies and data.
  • In Switzerland
  • List of Countries
  • For 7 days
  • Water Temperature
  • Weather Map
  • Weather Widgets
  • user-avatar
    Login

    Hourly Weather Bojsi

    Today, 12 December, Thursday

    Time Temperature Precipitation Wind Pressure Humidity
    00:00 +4°C° 0.5 mm 3 mps 686 mmHg 90%
    01:00 +4°C° 0.5 mm 3 mps 686 mmHg 91%
    02:00 +4°C° 1.3 mm 3 mps 686 mmHg 92%
    03:00 +5°C° 1.3 mm 2 mps 686 mmHg 94%
    04:00 +5°C° 1.3 mm 2 mps 686 mmHg 95%
    05:00 +6°C° 0.5 mm 2 mps 686 mmHg 95%
    06:00 +6°C° 0.5 mm 2 mps 686 mmHg 95%
    07:00 +6°C° 0.5 mm 2 mps 686 mmHg 94%
    08:00 +6°C° 0.4 mm 2 mps 686 mmHg 91%
    09:00 +7°C° 0.4 mm 2 mps 687 mmHg 87%
    10:00 +7°C° 0.4 mm 2 mps 688 mmHg 84%
    11:00 +8°C° 0 mm 2 mps 688 mmHg 77%
    12:00 +8°C° 0 mm 2 mps 688 mmHg 70%
    13:00 +10°C° 0 mm 1 mps 688 mmHg 63%
    14:00 +9°C° 0.1 mm 1 mps 688 mmHg 67%
    15:00 +9°C° 0.1 mm 1 mps 688 mmHg 72%
    16:00 +8°C° 0.1 mm 1 mps 688 mmHg 76%
    17:00 +7°C° 1.4 mm 1 mps 688 mmHg 82%
    18:00 +7°C° 1.4 mm 1 mps 688 mmHg 87%
    19:00 +6°C° 1.4 mm 1 mps 688 mmHg 93%
    20:00 +5°C° 0.2 mm 2 mps 688 mmHg 90%
    21:00 +5°C° 0.2 mm 2 mps 688 mmHg 87%
    22:00 +4°C° 0.2 mm 3 mps 689 mmHg 83%
    23:00 +4°C° 0 mm 3 mps 689 mmHg 83%

    Tomorrow, 13 December, Friday

    Time Temperature Precipitation Wind Pressure Humidity
    00:00 +4°C° 0 mm 2 mps 689 mmHg 83%
    01:00 +4°C° 0 mm 2 mps 689 mmHg 83%
    02:00 +4°C° 0 mm 2 mps 689 mmHg 81%
    03:00 +5°C° 0 mm 1 mps 689 mmHg 80%
    04:00 +4°C° 0 mm 1 mps 690 mmHg 79%
    05:00 +4°C° 0 mm 1 mps 690 mmHg 79%
    06:00 +4°C° 0 mm 1 mps 690 mmHg 79%
    07:00 +3°C° 0 mm 1 mps 690 mmHg 80%
    08:00 +4°C° 0 mm 1 mps 690 mmHg 75%
    09:00 +5°C° 0 mm 1 mps 690 mmHg 71%
    10:00 +6°C° 0 mm 1 mps 690 mmHg 66%
    11:00 +6°C° 0 mm 1 mps 689 mmHg 65%
    12:00 +6°C° 0 mm 1 mps 689 mmHg 63%
    13:00 +7°C° 0 mm 1 mps 688 mmHg 62%
    14:00 +6°C° 0 mm 1 mps 688 mmHg 65%
    15:00 +6°C° 0 mm 1 mps 687 mmHg 68%
    16:00 +5°C° 0 mm 1 mps 687 mmHg 72%
    17:00 +5°C° 0 mm 1 mps 686 mmHg 73%
    18:00 +4°C° 0 mm 1 mps 686 mmHg 74%
    19:00 +4°C° 0 mm 1 mps 686 mmHg 75%
    20:00 +4°C° 0 mm 1 mps 686 mmHg 80%
    21:00 +3°C° 0 mm 1 mps 686 mmHg 84%
    22:00 +3°C° 0 mm 1 mps 685 mmHg 88%
    23:00 +3°C° 0.2 mm 1 mps 685 mmHg 90%

    Day after tomorrow, 14 December, Saturday

    Time Temperature Precipitation Wind Pressure Humidity
    00:00 +3°C° 0.2 mm 1 mps 685 mmHg 92%
    01:00 +1°C° 0.2 mm 0 mps 685 mmHg 94%
    02:00 +1°C° 0.1 mm 0 mps 685 mmHg 94%
    03:00 0°C° 0.1 mm 0 mps 684 mmHg 94%
    04:00 0°C° 0.1 mm 0 mps 684 mmHg 94%
    05:00 +1°C° 0 mm 1 mps 685 mmHg 93%
    06:00 0°C° 0 mm 1 mps 685 mmHg 93%
    07:00 0°C° 0 mm 1 mps 685 mmHg 93%
    08:00 +1°C° 0 mm 1 mps 685 mmHg 87%
    09:00 +2°C° 0 mm 1 mps 685 mmHg 80%
    10:00 +2°C° 0 mm 2 mps 685 mmHg 74%
    11:00 +3°C° 0 mm 2 mps 685 mmHg 69%
    12:00 +2°C° 0 mm 3 mps 685 mmHg 64%
    13:00 +3°C° 0 mm 3 mps 684 mmHg 59%
    14:00 +3°C° 0 mm 2 mps 684 mmHg 62%
    15:00 +2°C° 0 mm 2 mps 684 mmHg 65%
    16:00 +2°C° 0 mm 1 mps 684 mmHg 67%
    17:00 +1°C° 0 mm 1 mps 684 mmHg 69%
    18:00 +1°C° 0 mm 1 mps 684 mmHg 70%
    19:00 0°C° 0 mm 1 mps 684 mmHg 72%
    20:00 0°C° 0 mm 1 mps 684 mmHg 72%
    21:00 0°C° 0 mm 1 mps 684 mmHg 72%
    22:00 0°C° 0 mm 1 mps 684 mmHg 72%
    23:00 0°C° 0 mm 1 mps 684 mmHg 72%

    15 December, Sunday

    Time Temperature Precipitation Wind Pressure Humidity
    00:00 -1°C° 0 mm 1 mps 684 mmHg 72%
    01:00 -1°C° 0 mm 1 mps 684 mmHg 71%
    02:00 -1°C° 0 mm 1 mps 684 mmHg 70%
    03:00 -1°C° 0 mm 1 mps 684 mmHg 69%
    04:00 -1°C° 0 mm 1 mps 684 mmHg 68%
    05:00 -1°C° 0 mm 1 mps 684 mmHg 68%
    06:00 -1°C° 0 mm 1 mps 685 mmHg 69%
    07:00 -2°C° 0 mm 0 mps 685 mmHg 69%
    08:00 0°C° 0 mm 1 mps 685 mmHg 66%
    09:00 0°C° 0 mm 1 mps 685 mmHg 63%
    10:00 +1°C° 0 mm 1 mps 686 mmHg 60%
    11:00 +1°C° 0.1 mm 1 mps 685 mmHg 67%
    12:00 +1°C° 0.1 mm 1 mps 685 mmHg 75%
    13:00 +1°C° 0.1 mm 1 mps 685 mmHg 82%
    14:00 0°C° 0 mm 1 mps 685 mmHg 84%
    15:00 0°C° 0 mm 1 mps 685 mmHg 87%
    16:00 0°C° 0 mm 1 mps 685 mmHg 89%
    17:00 -1°C° 0 mm 1 mps 686 mmHg 89%
    18:00 -1°C° 0 mm 1 mps 687 mmHg 89%
    19:00 -1°C° 0 mm 1 mps 687 mmHg 89%
    20:00 -2°C° 0 mm 1 mps 688 mmHg 88%
    21:00 -2°C° 0 mm 1 mps 688 mmHg 87%
    22:00 -2°C° 0 mm 1 mps 689 mmHg 87%
    23:00 -2°C° 0 mm 1 mps 689 mmHg 87%

    16 December, Monday

    Time Temperature Precipitation Wind Pressure Humidity
    00:00 -2°C° 0 mm 1 mps 690 mmHg 88%
    01:00 -2°C° 0 mm 1 mps 690 mmHg 88%
    02:00 -3°C° 0 mm 1 mps 690 mmHg 88%
    03:00 -3°C° 0 mm 1 mps 691 mmHg 88%
    04:00 -3°C° 0 mm 1 mps 691 mmHg 87%
    05:00 -3°C° 0 mm 1 mps 691 mmHg 87%
    06:00 -4°C° 0 mm 1 mps 692 mmHg 87%
    07:00 -4°C° 0 mm 1 mps 692 mmHg 87%
    08:00 -3°C° 0 mm 1 mps 693 mmHg 81%
    09:00 -3°C° 0 mm 0 mps 693 mmHg 75%
    10:00 -1°C° 0 mm 0 mps 694 mmHg 70%
    11:00 0°C° 0 mm 1 mps 694 mmHg 66%
    12:00 +1°C° 0 mm 1 mps 694 mmHg 63%
    13:00 +1°C° 0 mm 2 mps 693 mmHg 60%
    14:00 +1°C° 0 mm 1 mps 694 mmHg 64%
    15:00 0°C° 0 mm 1 mps 694 mmHg 69%
    16:00 -1°C° 0 mm 1 mps 694 mmHg 73%
    17:00 -2°C° 0 mm 1 mps 694 mmHg 73%
    18:00 -2°C° 0 mm 1 mps 695 mmHg 73%
    19:00 -2°C° 0 mm 1 mps 695 mmHg 73%
    20:00 -2°C° 0 mm 1 mps 696 mmHg 73%
    21:00 -3°C° 0 mm 1 mps 696 mmHg 73%
    22:00 -3°C° 0 mm 1 mps 696 mmHg 73%
    23:00 -5°C° 0 mm 2 mps 696 mmHg 73%

    17 December, Tuesday

    Time Temperature Precipitation Wind Pressure Humidity
    00:00 -5°C° 0 mm 2 mps 696 mmHg 73%
    01:00 -6°C° 0 mm 2 mps 697 mmHg 72%
    02:00 -6°C° 0 mm 2 mps 697 mmHg 72%
    03:00 -6°C° 0 mm 2 mps 697 mmHg 72%
    04:00 -7°C° 0 mm 2 mps 697 mmHg 71%
    05:00 -7°C° 0 mm 2 mps 697 mmHg 70%
    06:00 -7°C° 0 mm 2 mps 697 mmHg 70%
    07:00 -7°C° 0 mm 2 mps 697 mmHg 69%
    08:00 -7°C° 0 mm 3 mps 697 mmHg 63%
    09:00 -6°C° 0 mm 3 mps 697 mmHg 58%
    10:00 -5°C° 0 mm 3 mps 697 mmHg 52%
    11:00 -4°C° 0 mm 3 mps 696 mmHg 50%
    12:00 -2°C° 0 mm 3 mps 696 mmHg 48%
    13:00 -2°C° 0 mm 3 mps 695 mmHg 46%
    14:00 -2°C° 0 mm 3 mps 694 mmHg 50%
    15:00 -4°C° 0 mm 3 mps 694 mmHg 53%
    16:00 -5°C° 0 mm 3 mps 694 mmHg 57%
    17:00 -6°C° 0 mm 3 mps 694 mmHg 58%
    18:00 -6°C° 0 mm 3 mps 694 mmHg 60%
    19:00 -8°C° 0 mm 4 mps 693 mmHg 61%
    20:00 -8°C° 0 mm 4 mps 693 mmHg 61%
    21:00 -8°C° 0 mm 4 mps 693 mmHg 61%
    22:00 -8°C° 0 mm 4 mps 693 mmHg 61%
    23:00 -8°C° 0 mm 4 mps 692 mmHg 60%
    Show more